{"data":{"norad_id":65952,"epoch":"2026-09-20T22:06:47.818656Z","epoch_age_seconds":107149,"freshness":"FRESH","line1":"1 65952U 25228F   26263.92138679  .00003629  00000+0  50452-3 0  9998","line2":"2 65952  51.8996 219.7441 0000832  47.5331 312.5702 14.79953251 52105","mean_motion":14.79953251,"eccentricity":8.32e-5,"inclination_deg":51.8996,"raan_deg":219.7441,"arg_perigee_deg":47.5331,"mean_anomaly_deg":312.5702,"bstar":0.00050452,"rev_number":5210,"period_min":97.300370739886,"perigee_km":628.88866947112,"apogee_km":630.05473555921,"semimajor_km":7007.6087025152,"source":"CELESTRAK","updated_at":"2026-09-21T09:00:15.655114Z"}}